Regional Weather Roundup
Issued by NWS

Home | Current Version | Previous Version | Graphics & Text | Print | Product List | Glossary On
Versions: 1 2 3 4 5 6 7 8 9 10 11 12 13 14 15 16 17 18 19 20 21 22 23 24 25 26 27 28 29 30 31 32 33 34 35 36 37 38 39 40 41 42 43 44 45 46 47 48 49 50
651
ASUS43 KBIS 251902
RWRND

NORTH DAKOTA REGIONAL WEATHER ROUNDUP
NATIONAL WEATHER SERVICE BISMARCK ND
200 PM CDT THU AUG 25 2016

NOTE: "FAIR" INDICATES FEW OR NO CLOUDS BELOW 12,000 FEET WITH NO
SIGNIFICANT WEATHER AND/OR OBSTRUCTIONS TO VISIBILITY.


NDZ001>003-009>011-017-252000-
NORTHWEST NORTH DAKOTA

CITY           SKY/WX    TMP DP  RH WIND       PRES   REMARKS
WILLISTON      MOSUNNY   74  37  26 W12G18    30.15F
MINOT          MOSUNNY   72  45  37 W18G26    30.11F
MINOT AFB      MOSUNNY   71  45  38 NW16      30.09F
$$

NDZ018>021-031>035-040>046-252000-
SOUTHWEST NORTH DAKOTA

CITY           SKY/WX    TMP DP  RH WIND       PRES   REMARKS
BISMARCK       CLOUDY    67  49  52 W10       30.17F
DICKINSON      CLOUDY    63  40  42 NW13G21   30.19F
GARRISON         N/A     68  44  42 NW10      30.14F
HETTINGER ARPT CLOUDY    65  44  46 N13G21    30.24F
$$

NDZ004>008-012>016-024-026-027-054-252000-
NORTHEAST NORTH DAKOTA

CITY           SKY/WX    TMP DP  RH WIND       PRES   REMARKS
GRAND FORKS    MOSUNNY   70  48  45 NW17G28   30.03R
GRND FRKS AFB  MOSUNNY   68  48  48 N17       30.04R
DEVILS LAKE    PTSUNNY   67  49  52 W13       30.09S
$$

NDZ022-023-025-028>030-036>039-047>053-252000-
SOUTHEAST NORTH DAKOTA

CITY           SKY/WX    TMP DP  RH WIND       PRES   REMARKS
FARGO          PTSUNNY   68  53  58 W14       30.06S
JAMESTOWN      MOSUNNY   66  52  60 NW8       30.10F
$$





USA.gov is the U.S. government's official web portal to all federal, state and local government web resources and services.